Volver al catálogo

STARLINK-36216

ActivoComunicacionesVLEO
NORAD 67217·PAYLOAD·🇺🇸 United States

Lanzado Dec 17, 2025 desde Vandenberg Space Force Base

Loading…

Próximos Pases (próximas 24 horas)

TLE

ActualizadoSource: CelesTrak SupGP

Época: Sep 15, 2026, 02:11 UTC

1 67217C 25304AB  26258.09145833 -.00054483  00000+0 -45662-2 0  2581
2 67217  70.0010  56.9306 0003045 272.9480 117.9773 14.98355230    12

Sigue STARLINK-36216 en tiempo real con AllMySat

Download on the App Store